4XAGC LRIA-LRIA

Flight info

Callsign 4XAGC
Flight time 0h 4m
Altitude 5000
Route ABOLO
Aircraft C172/L-SFG/C

Departure

Time 2026-05-07 22:26
Airport Iaşi International Airport (LRIA)

Arrival

Time 2026-05-07 22:31
Airport Iaşi International Airport (LRIA)
Time Latitude Longitude Altitude Speed Heading
2026-05-07 22:10 47.17551 27.62008 365 ft 0 kts 243°
2026-05-07 22:21 47.17550 27.61988 366 ft 6 kts 303°
2026-05-07 22:22 47.17593 27.61979 367 ft 5 kts 341°
2026-05-07 22:22 47.17623 27.61963 368 ft 4 kts 350°
2026-05-07 22:22 47.17652 27.61960 369 ft 5 kts 355°
2026-05-07 22:22 47.17723 27.61942 371 ft 17 kts 359°
2026-05-07 22:23 47.17802 27.62033 371 ft 15 kts 18°
2026-05-07 22:23 47.17934 27.61956 376 ft 27 kts 346°
2026-05-07 22:23 47.18142 27.61819 385 ft 37 kts 338°
2026-05-07 22:23 47.18355 27.61659 392 ft 32 kts 334°
2026-05-07 22:24 47.18568 27.61513 397 ft 26 kts 343°
2026-05-07 22:24 47.18609 27.61524 395 ft 0 kts 83°
2026-05-07 22:24 47.18609 27.61526 395 ft 2 kts 95°
2026-05-07 22:25 47.18592 27.61587 393 ft 2 kts 135°
2026-05-07 22:25 47.18565 27.61609 392 ft 7 kts 146°
2026-05-07 22:25 47.18478 27.61689 390 ft 34 kts 145°
2026-05-07 22:25 47.18166 27.61976 435 ft 63 kts 147°
2026-05-07 22:26 47.17809 27.62293 676 ft 56 kts 150°
2026-05-07 22:26 47.17442 27.62656 821 ft 66 kts 147°
2026-05-07 22:26 47.17146 27.63146 975 ft 82 kts 120°
2026-05-07 22:26 47.17015 27.63805 1378 ft 53 kts 158°
2026-05-07 22:27 47.16616 27.63924 1468 ft 65 kts 171°
2026-05-07 22:27 47.16418 27.63444 1628 ft 99 kts 264°
2026-05-07 22:27 47.16527 27.62320 1586 ft 126 kts 276°
2026-05-07 22:27 47.16919 27.61134 1707 ft 129 kts 300°
2026-05-07 22:28 47.17543 27.60270 1907 ft 127 kts 326°
2026-05-07 22:28 47.18355 27.59614 1876 ft 138 kts 328°
2026-05-07 22:28 47.19167 27.58871 1759 ft 151 kts 334°
2026-05-07 22:28 47.20166 27.58782 1701 ft 141 kts 27°
2026-05-07 22:29 47.20983 27.59286 1619 ft 127 kts 355°
2026-05-07 22:29 47.21861 27.59053 1396 ft 112 kts 24°
2026-05-07 22:29 47.21874 27.59584 1314 ft 76 kts 185°
2026-05-07 22:29 47.21326 27.59465 1203 ft 82 kts 178°
2026-05-07 22:30 47.20780 27.59708 1056 ft 81 kts 155°
2026-05-07 22:30 47.20260 27.60085 910 ft 81 kts 154°
2026-05-07 22:30 47.19788 27.60510 814 ft 80 kts 150°
2026-05-07 22:30 47.19304 27.60960 623 ft 83 kts 153°
2026-05-07 22:31 47.18853 27.61362 458 ft 65 kts 149°
2026-05-07 22:31 47.18522 27.61655 391 ft 44 kts 151°
2026-05-07 22:31 47.18273 27.61869 385 ft 54 kts 148°
2026-05-07 22:31 47.17917 27.62234 516 ft 65 kts 146°
2026-05-07 22:32 47.17569 27.62597 794 ft 59 kts 146°
2026-05-07 22:32 47.17190 27.63003 948 ft 72 kts 146°
2026-05-07 22:32 47.16779 27.63497 1139 ft 76 kts 143°
2026-05-07 22:32 47.16328 27.63881 1336 ft 76 kts 169°
2026-05-07 22:33 47.15751 27.63656 1341 ft 104 kts 229°
2026-05-07 22:33 47.16011 27.62651 1492 ft 130 kts 335°
2026-05-07 22:33 47.16874 27.62002 1404 ft 149 kts 328°
2026-05-07 22:33 47.17745 27.61140 1368 ft 152 kts 322°
2026-05-07 22:34 47.18641 27.60277 1327 ft 153 kts 328°
2026-05-07 22:34 47.19562 27.59583 1461 ft 143 kts 335°
2026-05-07 22:34 47.20458 27.58965 1537 ft 142 kts 335°
2026-05-07 22:34 47.21371 27.58352 1521 ft 146 kts 336°
2026-05-07 22:35 47.21697 27.58156 1517 ft 141 kts 343°
2026-05-07 22:35 47.22551 27.58100 1695 ft 117 kts 52°
2026-05-07 22:35 47.22524 27.58957 1739 ft 81 kts 160°
2026-05-07 22:35 47.21917 27.59138 1600 ft 92 kts 171°
2026-05-07 22:36 47.21280 27.59417 1478 ft 99 kts 162°
2026-05-07 22:36 47.20663 27.59790 1159 ft 94 kts 155°
2026-05-07 22:36 47.20150 27.60200 1007 ft 86 kts 152°
2026-05-07 22:36 47.19657 27.60624 840 ft 83 kts 151°
2026-05-07 22:37 47.19170 27.61066 572 ft 75 kts 148°
2026-05-07 22:37 47.18772 27.61427 407 ft 57 kts 150°
2026-05-07 22:37 47.18547 27.61613 392 ft 9 kts 172°
2026-05-07 22:37 47.18542 27.61613 392 ft 0 kts 187°
2026-05-07 22:38 47.18440 27.61599 395 ft 29 kts 162°
2026-05-07 22:38 47.18193 27.61772 388 ft 44 kts 155°
2026-05-07 22:39 47.17951 27.61946 377 ft 35 kts 154°
2026-05-07 22:39 47.17793 27.62020 371 ft 13 kts 223°
2026-05-07 22:39 47.17751 27.61909 372 ft 14 kts 252°
2026-05-07 22:39 47.17749 27.61865 373 ft 0 kts 277°
2026-05-07 22:40 47.17737 27.61845 372 ft 6 kts 232°
2026-05-07 22:40 47.17734 27.61824 373 ft 0 kts 235°